This demonstration page uses our WeatherBlox Daily Observations layout. Learn more.

Left ArrowRight Arrow

Hourly Observations for January 24, 2018

Temp ( °F °C ) Dew Point ( °F °C ) Humidity (%) Winds ( mph kmh ) Pressure ( in mb ) Visibility ( mi km ) Precip ( " mm )
12:15 am 00:15 Cloudy 30 -1 28 -2 93 93 NW 9 15 30.21 1023 10 16 N/A
12:35 am 00:35 Cloudy 30 -1 28 -2 93 93 NW 9 15 30.21 1023 10 16 N/A
12:55 am 00:55 Cloudy 30 -1 28 -2 93 93 NW 10 17 30.21 1023 10 16 N/A
1:15 am 01:15 Cloudy 30 -1 28 -2 93 93 NW 8 13 30.21 1023 10 16 N/A
1:35 am 01:35 Cloudy 30 -1 28 -2 93 93 NW 8 13 30.21 1023 10 16 N/A
1:55 am 01:55 Cloudy 30 -1 28 -2 93 93 WNW 9 15 30.24 1024 5 8 N/A
2:16 am 02:16 Cloudy 28 -2 28 -2 100 100 WNW 3 6 30.24 1024 4 6 N/A
2:35 am 02:35 Cloudy 28 -2 28 -2 100 100 W 3 6 30.24 1024 5 8 N/A
2:55 am 02:55 Cloudy 28 -2 28 -2 100 100 WNW 5 7 30.24 1024 3 5 N/A
3:15 am 03:15 Cloudy 28 -2 28 -2 100 100 W 3 6 30.24 1024 4 6 N/A
3:35 am 03:35 Cloudy 28 -2 28 -2 100 100 WNW 3 6 30.24 1024 3 5 N/A
3:55 am 03:55 Cloudy 30 -1 30 -1 100 100 W 3 6 30.24 1024 4 6 N/A
4:15 am 04:15 Cloudy 30 -1 30 -1 100 100 W 7 11 30.24 1024 4 6 N/A
4:35 am 04:35 Cloudy 30 -1 30 -1 100 100 W 8 13 30.24 1024 5 8 N/A
4:55 am 04:55 Cloudy 30 -1 30 -1 100 100 W 9 15 30.24 1024 5 8 N/A
5:15 am 05:15 Cloudy 30 -1 30 -1 100 100 W 9 15 30.24 1024 5 8 N/A
5:35 am 05:35 Cloudy 28 -2 28 -2 100 100 W 8 13 30.24 1024 5 8 N/A
5:55 am 05:55 Cloudy 28 -2 28 -2 100 100 W 7 11 30.24 1024 5 8 N/A
6:15 am 06:15 Cloudy 28 -2 28 -2 100 100 W 7 11 30.24 1024 10 16 N/A
6:35 am 06:35 Cloudy 28 -2 28 -2 100 100 W 6 9 30.24 1024 10 16 N/A
6:55 am 06:55 Cloudy 28 -2 28 -2 100 100 W 5 7 30.24 1024 7 11 N/A
7:15 am 07:15 Cloudy 28 -2 28 -2 100 100 W 6 9 30.24 1024 7 11 N/A
7:35 am 07:35 Cloudy 28 -2 28 -2 100 100 W 7 11 30.24 1024 4 6 N/A
7:55 am 07:55 Cloudy 28 -2 28 -2 100 100 W 8 13 30.24 1024 7 11 N/A
8:15 am 08:15 Cloudy 28 -2 28 -2 100 100 W 8 13 30.27 1025 5 8 N/A
8:35 am 08:35 Cloudy 28 -2 28 -2 100 100 WNW 8 13 30.27 1025 7 11 N/A
8:55 am 08:55 Cloudy 28 -2 28 -2 100 100 W 7 11 30.27 1025 5 8 N/A
9:15 am 09:15 Cloudy 28 -2 28 -2 100 100 WNW 10 17 30.27 1025 7 11 N/A
9:35 am 09:35 Cloudy 28 -2 28 -2 100 100 WNW 9 15 30.27 1025 5 8 N/A
9:55 am 09:55 Cloudy 28 -2 28 -2 100 100 NW 6 9 30.27 1025 10 16 N/A
10:15 am 10:15 Cloudy 28 -2 28 -2 100 100 NW 5 7 30.27 1025 10 16 N/A
10:35 am 10:35 Cloudy 28 -2 27 -3 93 93 WNW 9 15 30.27 1025 7 11 N/A
10:55 am 10:55 Cloudy 27 -3 27 -3 100 100 WNW 5 7 30.27 1025 7 11 N/A
11:16 am 11:16 Cloudy 28 -2 27 -3 93 93 W 6 9 30.27 1025 7 11 N/A
11:35 am 11:35 Cloudy 28 -2 27 -3 93 93 WNW 5 7 30.27 1025 7 11 N/A
11:55 am 11:55 Cloudy 28 -2 27 -3 93 93 W 7 11 30.27 1025 7 11 N/A
12:15 pm 12:15 Cloudy 27 -3 27 -3 100 100 WNW 8 13 30.27 1025 7 11 N/A
12:35 pm 12:35 Cloudy 27 -3 27 -3 100 100 WNW 7 11 30.27 1025 7 11 N/A
12:55 pm 12:55 Cloudy 27 -3 27 -3 100 100 WNW 6 9 30.27 1025 7 11 N/A
1:15 pm 13:15 Cloudy 28 -2 27 -3 93 93 WNW 6 9 30.27 1025 7 11 N/A
1:55 pm 13:55 Cloudy 28 -2 27 -3 93 93 WNW 7 11 30.27 1025 7 11 N/A
2:15 pm 14:15 Cloudy 27 -3 27 -3 100 100 WNW 8 13 30.27 1025 7 11 N/A
2:35 pm 14:35 Cloudy 27 -3 27 -3 100 100 WNW 8 13 30.27 1025 5 8 N/A
2:55 pm 14:55 Cloudy 27 -3 27 -3 100 100 WNW 9 15 30.27 1025 5 8 N/A
3:15 pm 15:15 Cloudy 27 -3 27 -3 100 100 WNW 10 17 30.30 1026 5 8 N/A
3:35 pm 15:35 Cloudy 27 -3 27 -3 100 100 WNW 13 20 30.30 1026 5 8 N/A
3:55 pm 15:55 Cloudy 27 -3 27 -3 100 100 WNW 12 19 30.30 1026 7 11 N/A
4:15 pm 16:15 Cloudy 27 -3 27 -3 100 100 WNW 9 15 30.30 1026 10 16 N/A
4:35 pm 16:35 Cloudy 27 -3 27 -3 100 100 WNW 12 19 30.36 1028 5 8 N/A
4:55 pm 16:55 Cloudy 27 -3 25 -4 93 93 WNW 13 20 30.36 1028 7 11 N/A
5:15 pm 17:15 Cloudy 27 -3 25 -4 93 93 WNW 8 13 30.36 1028 7 11 N/A
5:35 pm 17:35 Cloudy 27 -3 25 -4 93 93 WNW 10 17 30.36 1028 10 16 N/A
5:55 pm 17:55 Cloudy 27 -3 23 -5 86 86 W 8 13 30.36 1028 10 16 N/A
6:15 pm 18:15 Cloudy 27 -3 23 -5 86 86 WNW 7 11 30.36 1028 10 16 N/A
6:35 pm 18:35 Cloudy 27 -3 23 -5 86 86 WNW 9 15 30.39 1029 10 16 N/A
6:55 pm 18:55 Partly Cloudy 25 -4 23 -5 93 93 WNW 8 13 30.39 1029 10 16 N/A
7:15 pm 19:15 Partly Cloudy 25 -4 23 -5 93 93 WNW 7 11 30.42 1030 10 16 N/A
7:35 pm 19:35 Mostly Cloudy 25 -4 25 -4 100 100 W 5 7 30.42 1030 10 16 N/A
7:55 pm 19:55 Cloudy 25 -4 25 -4 100 100 W 6 9 30.42 1030 10 16 N/A
8:15 pm 20:15 Partly Cloudy 23 -5 21 -6 93 93 W 6 9 30.42 1030 10 16 N/A
8:35 pm 20:35 Clear 23 -5 23 -5 100 100 W 7 11 30.42 1030 10 16 N/A
8:55 pm 20:55 Clear 21 -6 21 -6 100 100 WSW 5 7 30.42 1030 10 16 N/A
9:15 pm 21:15 Clear 23 -5 21 -6 93 93 WSW 6 9 30.42 1030 10 16 N/A
9:36 pm 21:36 Partly Cloudy 21 -6 21 -6 100 100 WSW 7 11 30.42 1030 10 16 N/A
9:55 pm 21:55 Mostly Cloudy 23 -5 23 -5 100 100 WSW 7 11 30.42 1030 10 16 N/A
10:15 pm 22:15 Cloudy 25 -4 25 -4 100 100 WSW 7 11 30.45 1031 10 16 N/A
10:35 pm 22:35 Cloudy 25 -4 23 -5 93 93 WSW 5 7 30.42 1030 10 16 N/A
10:55 pm 22:55 Mostly Cloudy 23 -5 23 -5 100 100 SW 5 7 30.42 1030 10 16 N/A
11:15 pm 23:15 Partly Cloudy 23 -5 21 -6 93 93 WSW 5 7 30.45 1031 10 16 N/A
11:35 pm 23:35 Mostly Cloudy 21 -6 21 -6 100 100 WSW 5 7 30.45 1031 10 16 N/A
11:55 pm 23:55 Cloudy 23 -5 23 -5 100 100 WSW 3 6 30.45 1031 10 16 N/A

Powered by AerisWeather